Preview of NWS' New Version of Forecast
This preview is not operational and should not be used for support decisions.

Regional Weather Roundup (RWR)

Issued by National Weather Service (NWS)

                            
000
ASUS45 KCYS 200410
RWRWY 

WYOMING REGIONAL WEATHER ROUNDUP
NATIONAL WEATHER SERVICE CHEYENNE WY
900 PM MST TUE FEB 19 2019

NOTE:  "FAIR" INDICATES FEW OR NO CLOUDS BELOW 12,000 FEET
WITH NO SIGNIFICANT WEATHER AND/OR OBSTRUCTIONS TO VISIBILITY.

WYZ001-200500-
...YELLOWSTONE NATIONAL PARK...
  
CITY           SKY/WX    TMP DP  RH WIND       PRES   REMARKS
LK YELLOWSTONE   N/A     -4  -9  79 CALM      29.65F                  
W YELLOWSTONE  NOT AVBL                                               

$$
WYZ002>013-054>058-071-098>099-200500-
...NORTHERN WYOMING...
  
CITY           SKY/WX    TMP DP  RH WIND       PRES   REMARKS
JACKSON        CLEAR      9  -9  44 N10       29.74S WCI  -5          
CODY           CLEAR     15  -3  44 W10G28    29.68F WCI   2          
GREYBULL       CLEAR      6   2  83 SE5       29.74F WCI  -3          
WORLAND        CLEAR      8   4  83 CALM      29.73S                  
SHERIDAN       CLEAR      5  -2  72 CALM      29.74F                  
BUFFALO        CLEAR     11   0  61 W5        29.66F WCI   3          
GILLETTE       CLEAR      6   2  83 SW6       29.70F WCI  -4          
HULETT         FLURRIES  12   5  73 MISG      29.73F                  
NEWCASTLE        N/A     12   5  73 E8        29.74F WCI   1          

$$
WYZ014>020-022>026-101>103-200500-
...CENTRAL WYOMING...
  
CITY           SKY/WX    TMP DP  RH WIND       PRES   REMARKS
BIG PINEY      CLEAR     -8 -14  74 W3        29.70S                  
PINEDALE       PTCLDY   -13 -17  84 NW14      29.69F WCI -35          
DUBOIS         FAIR       3  -8  60 W13G23    29.61F WCI -14          
LANDER         CLOUDY    11  -3  53 SW5       29.65F WCI   3          
RIVERTON       CLEAR     12   6  77 W7        29.66F WCI   1          
CASPER         PTCLDY    14   4  64 SW12      29.66F WCI   0          
DOUGLAS        CLEAR      9   7  92 CALM      29.69F                  

$$
WYZ021-027>030-104>119-200500-
...SOUTHERN WYOMING...
  
CITY           SKY/WX    TMP DP  RH WIND       PRES   REMARKS
EVANSTON       CLOUDY     5   0  79 SW16      29.74F WCI -14          
KEMMERER       LGT SNOW   3   0  85 W9        29.70S WCI -11          
FORT BRIDGER   CLEAR      7   1  78 NE18G24   29.76S WCI -12          
ROCK SPRINGS   CLOUDY     4  -1  80 W20       29.71F WCI -17          
DIXON          LGT SNOW   4   0  80 CALM      29.77F VSB 1            
RAWLINS        PTCLDY     7   1  76 SW9       29.67F WCI  -7          
SARATOGA       CLOUDY     5   0  78 SE5       29.68F WCI  -4          
LARAMIE        PTCLDY     1  -2  87 CALM      29.61S                  
CHEYENNE       CLEAR      4   2  91 W7        29.65F WCI  -8          
TORRINGTON     CLOUDY    11   9  92 E12       29.74F WCI  -3          
PINE BLUFFS    CLOUDY    12  10  92 S6        29.72F WCI   3          

$$